Location: Kumla
(59.1265°N, 15.1401°E)
Time: 15:57:36
(UTC+01:00)

A-11 Canister half - Pass Details

Date: 04 December 2023
Orbit: 1526 x 1682 km, 47.3° (Epoch: 24 February)

Event Time Altitude Azimuth Distance (km) Brightness Sun altitude
Rises 02:02:23 0° 280° (W) 4,901 - -46.2°
Reaches altitude 10° 02:06:44 10° 264° (W) 3,887 - -45.8°
Maximum altitude 02:12:58 19° 224° (SW) 3,176 - -45.1°
Drops below altitude 10° 02:19:06 10° 184° (S) 3,799 - -44.5°
Sets 02:23:19 0° 168° (SSE) 4,753 - -44.1°
